Weather History for Provo, UT

Change the Weather History Date:

Wednesday, August 13, 2014

  Actual Average Record
Temperature  
Mean Temperature 70 °F -  
Max Temperature 80 °F 87 °F 98 °F (2007)
Min Temperature 60 °F 57 °F 51 °F (2002)
Cooling Degree Days 5    
Growing Degree Days 20 (Base 50)    
Moisture  
Dew Point 56 °F    
Average Humidity 66    
Maximum Humidity 88    
Minimum Humidity 39    
Precipitation  
Precipitation 0.00 in - - ()
Sea Level Pressure  
Sea Level Pressure 30.13 in    
Wind  
Wind Speed 3 mph (SE)    
Max Wind Speed 17 mph    
Max Gust Speed 25 mph    
Visibility 12 miles    
Events      
Averages and records for this station are not official NWS values.
T = Trace of Precipitation, MM = Missing Value Source: NWS Daily Summary

Daily Weather History Graph

Daily Weather History Graph

Search for Another Location

Airport:

Trip Planner

Search our weather history database for the weather conditions in past years. The results will help you decide how hot, cold, wet, or windy it might be!

Date:

Astronomy

Aug. 13, 2014 Rise Set
Actual Time 6:36 AM MDT 8:26 PM MDT
Civil Twilight 6:06 AM MDT 8:55 PM MDT
Nautical Twilight 5:31 AM MDT 9:31 PM MDT
Astronomical Twilight 4:52 AM MDT 10:09 PM MDT
Moon 10:13 PM MDT (8/13) 10:09 AM MDT (8/13)
Length of Visible Light 14h 48m
Length of Day
13h 50m
Waning Gibbous, 87% of the Moon is Illuminated
Aug 13
Waning Gibbous
Aug 17
Last Quarter
Aug 25
New
Sep 2
First Quarter
Sep 8
Full

Hourly Weather History & Observations

Time (MDT) Temp. Heat Index Dew Point Humidity Pressure Visibility Wind Dir Wind Speed Gust Speed Precip Events Conditions
12:15 AM 68.0 °F - 57.2 °F 68% 30.17 in 10.0 mi Calm Calm - N/A   Clear
12:35 AM 66.2 °F - 57.2 °F 73% 30.17 in 10.0 mi Calm Calm - N/A   Clear
12:55 AM 66.2 °F - 59.0 °F 78% 30.18 in 10.0 mi West 5.8 mph - N/A   Clear
1:15 AM 68.0 °F - 57.2 °F 68% 30.17 in 10.0 mi WNW 3.5 mph - N/A   Clear
1:35 AM 64.4 °F - 57.2 °F 77% 30.17 in 10.0 mi Calm Calm - N/A   Clear
1:55 AM 64.4 °F - 57.2 °F 77% 30.16 in 10.0 mi Calm Calm - N/A   Clear
2:15 AM 62.6 °F - 57.2 °F 82% 30.15 in 10.0 mi Calm Calm - N/A   Clear
2:35 AM 62.6 °F - 55.4 °F 77% 30.15 in 10.0 mi SE 4.6 mph - N/A   Clear
2:55 AM 62.6 °F - 57.2 °F 82% 30.15 in 10.0 mi Calm Calm - N/A   Clear
3:15 AM 62.6 °F - 57.2 °F 82% 30.15 in 10.0 mi Calm Calm - N/A   Clear
3:35 AM 60.8 °F - 55.4 °F 82% 30.15 in 10.0 mi Calm Calm - N/A   Clear
3:55 AM 60.8 °F - 55.4 °F 82% 30.16 in 10.0 mi NE 3.5 mph - N/A   Clear
4:15 AM 60.8 °F - 57.2 °F 88% 30.16 in 10.0 mi Calm Calm - N/A   Clear
4:35 AM 62.6 °F - 57.2 °F 82% 30.16 in 10.0 mi Calm Calm - N/A   Clear
4:55 AM 60.8 °F - 55.4 °F 82% 30.16 in 10.0 mi Calm Calm - N/A   Clear
5:15 AM 60.8 °F - 55.4 °F 82% 30.16 in 10.0 mi SE 5.8 mph - N/A   Clear
5:35 AM 60.8 °F - 55.4 °F 82% 30.16 in 10.0 mi Calm Calm - N/A   Clear
7:55 AM 66.2 °F - 53.6 °F 64% 30.17 in 15.0 mi SSE 6.9 mph - N/A   Mostly Cloudy
9:59 AM 68.0 °F - 57.2 °F 68% 30.17 in 15.0 mi Calm Calm - N/A   Mostly Cloudy
10:51 AM 71.6 °F - 55.4 °F 57% 30.16 in 15.0 mi East 4.6 mph - N/A   Mostly Cloudy
11:59 AM 73.4 °F - 53.6 °F 50% 30.16 in 15.0 mi Calm Calm - N/A   Mostly Cloudy
12:47 PM 71.6 °F - 57.2 °F 60% 30.15 in 15.0 mi Calm Calm - N/A   Mostly Cloudy
1:52 PM 77.0 °F - 53.6 °F 44% 30.14 in 15.0 mi ESE 10.4 mph - N/A   Mostly Cloudy
2:59 PM 78.8 °F - 51.8 °F 39% 30.13 in 15.0 mi ESE 17.3 mph 23.0 mph N/A   Mostly Cloudy
3:55 PM 80.6 °F 80.3 °F 53.6 °F 39% 30.10 in 15.0 mi ESE 11.5 mph 25.3 mph N/A   Mostly Cloudy
4:58 PM 80.6 °F 80.3 °F 53.6 °F 39% 30.08 in 15.0 mi SE 15.0 mph 25.3 mph N/A   Mostly Cloudy
5:49 PM 78.8 °F - 53.6 °F 42% 30.07 in 15.0 mi SE 11.5 mph 17.3 mph N/A   Mostly Cloudy
6:51 PM 78.8 °F - 53.6 °F 42% 30.06 in 15.0 mi ESE 12.7 mph - N/A   Mostly Cloudy
10:15 PM 69.8 °F - 55.4 °F 60% 30.07 in 10.0 mi SE 5.8 mph - N/A   Clear
10:35 PM 69.8 °F - 55.4 °F 60% 30.07 in 10.0 mi SE 5.8 mph - N/A   Clear
10:55 PM 68.0 °F - 55.4 °F 64% 30.06 in 10.0 mi ESE 8.1 mph - N/A   Clear
11:15 PM 68.0 °F - 55.4 °F 64% 30.07 in 10.0 mi SSE 8.1 mph - N/A   Clear
11:35 PM 68.0 °F - 53.6 °F 60% 30.07 in 10.0 mi SE 12.7 mph - N/A   Clear
11:55 PM 69.8 °F - 53.6 °F 56% 30.08 in 10.0 mi SE 11.5 mph - N/A   Clear